CW5882 Weather Reports


time (UTC)temp
C
wind
direction
speed
KPH
gust
KPH
rain 1hr
cm
rain 24hr
cm
rain mn
cm
humidity
%
barometer
mb
20260509201228 17 236 3.2 6.4 0.00 0.71 0.36 74 1009.3
20260509200316 17 179 3.2 9.7 0.00 0.71 0.36 75 1009.1
20260509195300 17 196 3.2 4.8 0.00 0.71 0.36 78 1009.2
20260509194241 16 189 4.8 12.9 0.00 0.71 0.36 77 1009.6
20260509193220 17 212 4.8 6.4 0.00 0.74 0.36 74 1009.5
20260509192328 16 202 0.0 6.4 0.00 0.74 0.36 82 1009.6
20260509191234 17 194 3.2 11.3 0.00 0.74 0.36 80 1009.6
20260509190220 16 176 3.2 9.7 0.00 0.74 0.36 82 1009.7
20260509185251 16 185 3.2 9.7 0.00 0.74 0.36 86 1009.8
20260509184236 15 195 3.2 6.4 0.00 0.74 0.36 88 1009.7
20260509183314 15 224 3.2 11.3 0.00 0.74 0.36 87 1009.9
20260509182258 15 251 1.6 3.2 0.00 0.76 0.36 89 1010.1
20260509181244 13 186 1.6 6.4 0.00 0.76 0.36 94 1009.8
20260509180228 13 182 1.6 3.2 0.00 0.76 0.36 94 1010.0
20260509175306 13 185 1.6 4.8 0.00 0.76 0.36 95 1010.1
20260509174245 13 154 3.2 4.8 0.00 0.76 0.36 95 1009.9
20260509173231 13 150 1.6 4.8 0.00 0.76 0.36 97 1010.2
20260509172337 13 170 0.0 1.6 0.00 0.76 0.36 99 1010.0
20260509171305 13 0.0 0.0 0.00 0.76 0.36 98 1010.2
20260509170247 13 154 1.6 4.8 0.00 0.76 0.36 98 1010.6
20260509165219 12 197 1.6 4.8 0.00 0.76 0.36 100 1009.8
20260509164348 12 169 1.6 4.8 0.03 0.76 0.36 100 1010.0
20260509163252 12 154 1.6 3.2 0.03 0.76 0.36 100 1010.0
20260509162238 11 166 1.6 6.4 0.05 0.76 0.36 100 1010.3
20260509161224 11 204 1.6 6.4 0.13 0.76 0.36 100 1010.0
20260509160305 11 183 0.0 1.6 0.13 0.76 0.36 100 1010.3
20260509154229 11 177 1.6 6.4 0.10 0.74 0.33 100 1009.8
20260509153308 11 184 1.6 3.2 0.10 0.74 0.33 100 1009.8
20260509152253 10 194 0.0 3.2 0.08 0.71 0.30 100 1010.2
20260509151241 10 203 1.6 4.8 0.03 0.64 0.23 100 1010.0
20260509150221 10 169 0.0 3.2 0.03 0.64 0.23 100 1010.2
20260509145258 10 260 3.2 4.8 0.03 0.64 0.23 100 1009.7
20260509144233 10 171 1.6 3.2 0.03 0.64 0.23 100 1009.9
20260509143218 10 163 1.6 3.2 0.05 0.64 0.23 100 1010.0
20260509142307 10 156 1.6 3.2 0.10 0.64 0.23 100 1010.2
20260509141244 10 154 1.6 3.2 0.10 0.61 0.20 100 1010.0
20260509140249 10 184 1.6 4.8 0.13 0.61 0.20 100 1010.1
20260509135315 10 174 1.6 4.8 0.13 0.61 0.20 100 1010.3
20260509134312 10 155 1.6 4.8 0.13 0.61 0.20 100 1010.4
20260509133305 10 156 1.6 3.2 0.10 0.58 0.18 100 1010.1
20260509132228 10 214 1.6 4.8 0.05 0.53 0.13 100 1010.2
20260509131259 10 179 3.2 4.8 0.03 0.51 0.10 100 1010.5
20260509130247 10 168 1.6 3.2 0.03 0.48 0.08 100 1010.5
20260509125229 10 238 1.6 4.8 0.03 0.48 0.08 100 1010.4
20260509124302 10 161 1.6 6.4 0.05 0.48 0.08 100 1010.3
20260509123248 9 161 3.2 4.8 0.05 0.48 0.08 100 1010.4
20260509122235 9 150 1.6 4.8 0.05 0.48 0.08 100 1010.3
20260509121243 9 155 1.6 4.8 0.05 0.48 0.08 100 1010.5
20260509120306 9 159 1.6 3.2 0.03 0.46 0.05 100 1010.1
20260509115249 8 164 1.6 3.2 0.03 0.46 0.05 100 1010.4
20260509114228 8 165 1.6 1.6 0.00 0.43 0.03 100 1010.3
20260509113312 8 170 1.6 3.2 0.00 0.43 0.03 100 1010.3
20260509112301 8 133 0.0 1.6 0.00 0.43 0.03 100 1010.3
20260509111237 8 133 0.0 1.6 0.00 0.43 0.03 100 1010.3
20260509110218 8 0.0 0.0 0.00 0.43 0.03 100 1010.2
20260509105300 8 0.0 0.0 0.00 0.43 0.03 100 1010.3
20260509104246 8 0.0 1.6 0.00 0.43 0.03 100 1010.3
20260509103228 8 0.0 0.0 0.03 0.43 0.03 100 1010.2
20260509102312 8 0.0 0.0 0.03 0.43 0.03 100 1010.4
20260509101256 8 0.0 0.0 0.03 0.43 0.03 100 1010.3
20260509100303 8 0.0 0.0 0.03 0.43 0.03 100 1010.2
20260509095221 8 79 0.0 1.6 0.03 0.43 0.03 100 1010.5
20260509094305 8 0.0 0.0 0.03 0.43 0.03 100 1010.4
20260509092230 8 0.0 0.0 0.00 0.41 0.00 100 1010.7
20260509091337 8 0.0 0.0 0.00 0.41 0.00 100 1010.8
20260509090335 8 0.0 0.0 0.00 0.41 0.00 100 1010.9
20260509085237 8 0.0 0.0 0.00 0.41 0.00 100 1010.8
20260509084311 8 0.0 0.0 0.00 0.41 0.00 100 1010.6
20260509083257 8 0.0 0.0 0.00 0.41 0.00 100 1010.7
20260509082228 8 0.0 0.0 0.00 0.41 0.00 100 1010.7
20260509081309 8 0.0 0.0 0.00 0.41 0.00 100 1010.7
20260509080305 8 0.0 0.0 0.00 0.41 0.00 100 1010.5
20260509075216 8 0.0 0.0 0.00 0.41 0.00 100 1010.5
20260509074306 8 0.0 0.0 0.00 0.41 0.00 100 1010.7
20260509073253 8 0.0 0.0 0.00 0.41 0.00 100 1010.9
20260509072236 8 0.0 0.0 0.00 0.41 0.00 100 1010.6
20260509071225 8 0.0 0.0 0.00 0.41 0.00 100 1010.8
20260509070308 8 0.0 0.0 0.00 0.41 0.00 100 1010.6
20260509065241 8 0.0 0.0 0.00 0.41 0.00 100 1010.8
20260509064223 8 0.0 0.0 0.00 0.41 0.00 100 1011.0
20260509063302 8 0.0 0.0 0.00 0.41 0.00 100 1011.0
20260509061229 8 0.0 0.0 0.00 0.41 0.00 100 1011.4
20260509060336 8 0.0 0.0 0.00 0.41 0.00 100 1011.8
20260509055315 8 0.0 1.6 0.00 0.41 0.00 100 1011.7
20260509054227 8 0.0 0.0 0.00 0.41 0.00 100 1011.7
20260509053216 8 0.0 0.0 0.00 0.41 0.00 100 1012.1
20260509052253 8 0.0 0.0 0.00 0.41 0.00 100 1011.9
20260509051226 8 0.0 0.0 0.00 0.41 0.00 100 1012.0
20260509050310 8 0.0 0.0 0.00 0.41 0.00 100 1011.9
20260509045307 8 0.0 0.0 0.00 0.41 0.00 100 1012.2
20260509044226 8 0.0 0.0 0.03 0.41 0.00 100 1012.6
20260509043316 8 0.0 0.0 0.03 0.41 0.00 100 1012.7
20260509042307 8 0.0 0.0 0.03 0.41 0.00 100 1012.6
20260509041231 8 0.0 0.0 0.03 0.41 0.00 100 1013.0
20260509040308 8 0.0 0.0 0.05 0.41 0.00 100 1013.0
20260509035245 8 0.0 0.0 0.05 0.41 0.41 100 1013.3
20260509034217 8 0.0 0.0 0.05 0.38 0.38 100 1013.5
20260509033306 8 0.0 0.0 0.05 0.38 0.38 100 1013.3
20260509032313 8 0.0 0.0 0.08 0.38 0.38 100 1013.7
20260509031237 8 0.0 0.0 0.08 0.38 0.38 100 1013.9
20260509030308 8 0.0 0.0 0.08 0.36 0.36 100 1014.1
20260509025253 9 0.0 0.0 0.08 0.36 0.36 100 1013.6
20260509024237 8 0.0 1.6 0.05 0.33 0.33 100 1013.5
20260509023314 8 0.0 0.0 0.05 0.33 0.33 100 1013.8
20260509022321 8 0.0 0.0 0.03 0.30 0.30 100 1013.6
20260509021245 8 0.0 0.0 0.03 0.30 0.30 100 1013.3
20260509020231 8 0.0 0.0 0.00 0.28 0.28 100 1013.4
20260509015317 8 0.0 0.0 0.00 0.28 0.28 100 1013.1
20260509014316 9 0.0 0.0 0.00 0.28 0.28 100 1013.3
20260509013246 9 0.0 0.0 0.00 0.28 0.28 100 1013.4
20260509012246 8 0.0 0.0 0.00 0.28 0.28 100 1013.2
20260509011329 8 0.0 0.0 0.00 0.28 0.28 100 1013.0
20260509010303 8 0.0 0.0 0.00 0.28 0.28 100 1012.9
20260509005229 8 0.0 1.6 0.00 0.28 0.28 100 1012.5
20260509004337 9 0.0 0.0 0.00 0.28 0.28 100 1012.9
20260509003258 9 0.0 0.0 0.00 0.28 0.28 100 1012.4
20260509002245 9 0.0 0.0 0.00 0.28 0.28 100 1012.7
20260509001227 9 0.0 0.0 0.00 0.28 0.28 100 1012.4
20260509000318 9 0.0 0.0 0.00 0.28 0.28 100 1012.2
20260508235306 9 0.0 0.0 0.00 0.28 0.28 100 1012.1
20260508234246 10 0.0 0.0 0.00 0.28 0.28 100 1012.0
20260508233251 10 0.0 0.0 0.03 0.28 0.28 100 1012.6
20260508232218 10 0.0 0.0 0.03 0.28 0.28 98 1012.4
20260508231301 10 0.0 0.0 0.03 0.28 0.28 99 1012.4
20260508230306 10 0.0 0.0 0.03 0.28 0.28 98 1012.7
20260508225227 10 0.0 0.0 0.08 0.28 0.28 97 1012.8
20260508224331 10 0.0 0.0 0.10 0.28 0.28 97 1012.5
20260508223318 10 0.0 0.0 0.10 0.25 0.25 97 1012.5
20260508222245 10 0.0 1.6 0.15 0.25 0.25 96 1012.7
20260508221229 10 267 1.6 3.2 0.20 0.25 0.25 95 1013.2
20260508220311 10 320 0.0 4.8 0.20 0.25 0.25 96 1013.0
20260508215244 10 139 0.0 3.2 0.15 0.20 0.20 98 1013.2
20260508214231 10 0.0 0.0 0.13 0.18 0.18 94 1012.9
20260508213218 10 0.0 0.0 0.10 0.15 0.15 92 1013.0
20260508212255 11 0.0 4.8 0.05 0.10 0.10 87 1012.9
20260508211240 12 246 0.0 1.6 0.00 0.05 0.05 81 1012.8
20260508210304 12 208 0.0 3.2 0.00 0.05 0.05 81 1012.4
20260508205330 12 190 0.0 4.8 0.00 0.05 0.05 80 1012.6
20260508204254 11 231 1.6 4.8 0.00 0.05 0.05 79 1012.6
20260508203259 11 242 3.2 16.1 0.03 0.05 0.05 80 1012.6
20260508202221 11 224 1.6 3.2 0.03 0.05 0.05 79 1012.8